Flag for Australia Weather past 2 weeks in Samford, Queensland, Australia

Now
68 °F

Sunny.


Feels Like: 68 °F
Forecast: 67 / 86 °F
Wind: 7 mph from Southwest

Location: Brisbane Airport M. O

Current Time: Mar 7, 2015 at 6:51:25 AM

Latest Report: Mar 7, 2015 at 6:00 AM


Visibility: 10 mi

Pressure: 29.80 "Hg

Humidity: 94%

Dew point: 66 °F

Location of SamfordLocation

Historic Weather in Samford — Graph

°F

Samford temperature yesterday

Maximum temperature yesterday: 81 °F (at 9:30 AM)
Minimum temperature yesterday: 73 °F (at 8:30 PM)
Average temperature yesterday: 78 °F

Past Weeks' High & Low Weather Summary

 TemperatureHumidityPressure
High88 °F (Mar 5, 2:00 PM)100% (Feb 20, 5:00 AM)29.98 "Hg (Feb 20, 5:00 AM)
Low68 °F (Feb 26, 4:00 AM)48% (Mar 3, 11:00 AM)29.59 "Hg (Mar 5, 3:00 PM)
Average77 °F77%29.81 "Hg
* Reported Feb 20 5:00 AM — Mar 7 5:30 AM, Samford, Weather by CustomWeather, © 2015

Note: Actual official high and low records may vary slightly from our data, if they occured in-between our weather recording intervals... More about our weather records

Advertising

Samford weather history for previous 24 hours

 ConditionsComfort  
Time TempWeatherWind HumidityBarometerVisibility
5:30 AM
Sat, Mar 7
68 °FSunny.7 mph94%29.77 "Hg10 mi
5:00 AM70 °FSunny.7 mph88%29.77 "Hg10 mi
4:00 AM70 °FClear.7 mph88%29.74 "Hg10 mi
3:30 AM70 °FClear.5 mph88%29.74 "Hg10 mi
3:00 AM70 °FClear.6 mph94%29.74 "Hg10 mi
2:30 AM70 °FClear.7 mph94%29.74 "Hg10 mi
2:00 AM72 °FClear.6 mph88%29.74 "Hg10 mi
1:30 AM72 °FClear.6 mph88%29.77 "Hg10 mi
1:00 AM73 °FPassing clouds.6 mph83%29.77 "HgN/A
12:30 AM73 °FPassing clouds.1 mph83%29.77 "HgN/A
12:00 AM73 °FPassing clouds.7 mph83%29.77 "HgN/A
11:30 PM
Fri, Mar 6
75 °FPassing clouds.7 mph78%29.77 "HgN/A
11:00 PM75 °FPassing clouds.9 mph78%29.77 "HgN/A
10:00 PM75 °FPassing clouds.8 mph78%29.77 "HgN/A
9:30 PM75 °FPassing clouds.8 mph78%29.77 "HgN/A
9:00 PM75 °FPassing clouds.7 mph78%29.77 "HgN/A
8:30 PM73 °FPassing clouds.6 mph83%29.77 "HgN/A
8:00 PM75 °FPassing clouds.6 mph74%29.74 "HgN/A
7:30 PM75 °FPassing clouds.8 mph74%29.74 "HgN/A
7:00 PM77 °FPassing clouds.8 mph69%29.74 "HgN/A
6:30 PM75 °FPassing clouds.8 mph74%29.71 "HgN/A
6:00 PM77 °FPassing clouds.8 mph69%29.71 "HgN/A
5:30 PM79 °FPassing clouds.9 mph65%29.71 "HgN/A
5:00 PM79 °FPassing clouds.10 mph65%29.71 "HgN/A
4:30 PM79 °FPassing clouds.12 mph65%29.68 "HgN/A
4:00 PM81 °FPassing clouds.13 mph62%29.71 "HgN/A
3:30 PM81 °FPassing clouds.9 mph62%29.71 "HgN/A
3:00 PM81 °FPassing clouds.10 mph62%29.71 "HgN/A
2:30 PM81 °FScattered clouds.9 mph58%29.71 "HgN/A
2:00 PM81 °FPartly sunny.8 mph62%29.74 "HgN/A
1:00 PM79 °FBroken clouds.8 mph61%29.77 "HgN/A
12:30 PM79 °FMore clouds than sun.8 mph61%29.77 "HgN/A
12:00 PM79 °FPartly sunny.7 mph61%29.80 "HgN/A
11:30 AM79 °FPartly sunny.7 mph61%29.80 "HgN/A
11:00 AM79 °FPartly sunny.8 mph61%29.80 "HgN/A
10:30 AM79 °FPartly sunny.8 mph61%29.80 "HgN/A
10:00 AM79 °FPartly sunny.8 mph61%29.83 "HgN/A
9:30 AM81 °FPartly sunny.9 mph58%29.80 "HgN/A
9:00 AM79 °FPartly sunny.10 mph61%29.80 "HgN/A
8:30 AM79 °FBroken clouds.9 mph58%29.80 "HgN/A
8:00 AM79 °FPartly sunny.10 mph61%29.80 "HgN/A
7:30 AM77 °FPartly sunny.9 mph65%29.80 "HgN/A
6:30 AM77 °FScattered showers. Broken clouds.10 mph65%29.80 "HgN/A
6:00 AM77 °FBroken clouds.10 mph61%29.77 "HgN/A
Weather by CustomWeather, © 2015

See weather overviewHow to use our weather pages